Regional Weather Roundup
Issued by NWS Goodland, KS

Home | Current Version | Previous Version | Text Only | Print | Product List | Glossary On
Versions: 1 2 3 4 5 6 7 8 9 10 11 12 13 14 15 16 17 18 19 20 21 22 23 24 25 26 27 28 29 30 31 32 33 34 35 36 37 38 39 40 41 42 43 44 45 46 47 48 49 50
000
ASUS43 KGLD 211359
RWRGLD

GOODLAND FORECAST AREA HOURLY WEATHER ROUNDUP
NATIONAL WEATHER SERVICE GOODLAND KS
800 AM MDT SAT APR 21 2018

...OFFICIAL OBSERVATIONS...

CITY           SKY/WX    TMP DP  RH WIND       PRES   REMARKS
GOODLAND KS    LGT RAIN  38  37  97 E9        30.16R
HILL CITY KS   CLOUDY    42  41  96 NE12      30.20S
IMPERIAL NEB   LGT RAIN  38  37  97 E12       30.21R
MCCOOK NEB     CLOUDY    40  40 100 NE10      30.22R FOG
AKRON CO       LGT SNOW  31  31 100 E7        30.16S FOG
BURLINGTON CO  CLOUDY    36  36 100 E8        30.16R
LIMON CO       LGT SNOW  32  32 100 CALM      30.14R FOG
$$

...UNOFFICIAL OBSERVATIONS...

CITY           SKY/WX    TMP DP  RH WIND       PRES   REMARKS
NORTON KS      CLOUDY    41  39  93 NE8       30.20
SHARON SPRINGS   N/A     39  38  95 NE9         N/A
KIT CARSON CO    N/A     37  33  84 CALM        N/A
YUMA CO        LGT SNOW  32  32 100 NE3       30.18R
$$



USA.gov is the U.S. government's official web portal to all federal, state and local government web resources and services.